| time (UTC) | temp F | wind direction | speed MPH | gust MPH | rain 1hr in | rain 24hr in | rain mn in | humidity % | barometer mb |
| 20260507140024 | 59 | 14 | 1.0 | 3.0 | 0.00 | 0.26 | 0.06 | 98 | 1014.4 |
| 20260507135403 | 59 | 48 | 0.0 | 2.0 | 0.00 | 0.26 | 0.06 | 98 | 1014.1 |
| 20260507134503 | 59 | 42 | 1.0 | 4.0 | 0.00 | 0.26 | 0.06 | 98 | 1014.2 |
| 20260507133603 | 59 | 58 | 0.0 | 2.0 | 0.00 | 0.26 | 0.06 | 99 | 1014.1 |
| 20260507132703 | 59 | 58 | 0.0 | 1.0 | 0.00 | 0.26 | 0.06 | 99 | 1014.0 |
| 20260507131803 | 58 | 45 | 0.0 | 1.0 | 0.00 | 0.26 | 0.06 | 99 | 1014.0 |
| 20260507130903 | 58 | 9 | 0.0 | 1.0 | 0.00 | 0.26 | 0.06 | 99 | 1013.9 |
| 20260507130024 | 58 | 53 | 0.0 | 1.0 | 0.00 | 0.26 | 0.06 | 99 | 1014.2 |
| 20260507125403 | 58 | 54 | 0.0 | 1.0 | 0.00 | 0.26 | 0.06 | 99 | 1014.1 |
| 20260507124503 | 58 | 54 | 0.0 | 1.0 | 0.01 | 0.26 | 0.06 | 99 | 1013.9 |
| 20260507123603 | 57 | 0 | 0.0 | 0.0 | 0.02 | 0.26 | 0.06 | 99 | 1014.0 |
| 20260507122705 | 57 | 0 | 0.0 | 0.0 | 0.03 | 0.26 | 0.06 | 99 | 1014.0 |
| 20260507121803 | 56 | 53 | 0.0 | 1.0 | 0.03 | 0.26 | 0.06 | 99 | 1014.4 |
| 20260507120903 | 56 | 0 | 0.0 | 0.0 | 0.04 | 0.26 | 0.06 | 99 | 1014.7 |
| 20260507120024 | 55 | 0 | 0.0 | 0.0 | 0.04 | 0.26 | 0.06 | 99 | 1014.7 |
| 20260507115403 | 55 | 0 | 0.0 | 0.0 | 0.03 | 0.25 | 0.05 | 99 | 1015.0 |
| 20260507114503 | 55 | 0 | 0.0 | 0.0 | 0.03 | 0.24 | 0.04 | 99 | 1015.1 |
| 20260507113603 | 55 | 0 | 0.0 | 0.0 | 0.02 | 0.23 | 0.03 | 99 | 1015.3 |
| 20260507112703 | 55 | 0 | 0.0 | 0.0 | 0.02 | 0.23 | 0.03 | 99 | 1014.8 |
| 20260507100003 | 54 | 40 | 0.0 | 2.0 | 0.00 | 0.21 | 0.01 | 99 | 1014.0 |
| 20260507095403 | 54 | 69 | 0.0 | 1.0 | 0.00 | 0.21 | 0.01 | 99 | 1014.2 |
| 20260507094503 | 54 | 0 | 0.0 | 0.0 | 0.00 | 0.21 | 0.01 | 99 | 1014.2 |
| 20260507093603 | 54 | 142 | 0.0 | 1.0 | 0.00 | 0.21 | 0.01 | 99 | 1014.5 |
| 20260507092703 | 54 | 0 | 0.0 | 0.0 | 0.00 | 0.21 | 0.01 | 99 | 1014.3 |
| 20260507091803 | 54 | 0 | 0.0 | 0.0 | 0.00 | 0.21 | 0.01 | 99 | 1014.7 |
| 20260507090903 | 54 | 0 | 0.0 | 0.0 | 0.00 | 0.21 | 0.01 | 99 | 1014.3 |
| 20260507090004 | 54 | 0 | 0.0 | 0.0 | 0.00 | 0.21 | 0.01 | 99 | 1014.3 |
| 20260507085403 | 54 | 0 | 0.0 | 0.0 | 0.00 | 0.21 | 0.01 | 99 | 1014.9 |
| 20260507084503 | 54 | 0 | 0.0 | 0.0 | 0.00 | 0.20 | 0.00 | 99 | 1014.4 |
| 20260507083603 | 55 | 0 | 0.0 | 0.0 | 0.00 | 0.20 | 0.00 | 99 | 1014.3 |
| 20260507082703 | 55 | 0 | 0.0 | 0.0 | 0.00 | 0.20 | 0.00 | 99 | 1014.0 |
| 20260507081803 | 55 | 0 | 0.0 | 0.0 | 0.00 | 0.20 | 0.00 | 99 | 1014.4 |
| 20260507080903 | 55 | 0 | 0.0 | 0.0 | 0.00 | 0.20 | 0.00 | 99 | 1014.9 |
| 20260507080003 | 55 | 0 | 0.0 | 0.0 | 0.00 | 0.20 | 0.00 | 99 | 1015.1 |
| 20260507075424 | 55 | 0 | 0.0 | 0.0 | 0.00 | 0.20 | 0.00 | 99 | 1015.0 |
| 20260507074503 | 55 | 143 | 0.0 | 1.0 | 0.00 | 0.20 | 0.00 | 99 | 1014.9 |
| 20260507073603 | 55 | 0 | 0.0 | 0.0 | 0.00 | 0.20 | 0.00 | 99 | 1015.0 |
| 20260507072703 | 56 | 0 | 0.0 | 0.0 | 0.00 | 0.20 | 0.00 | 99 | 1014.8 |
| 20260507071803 | 56 | 0 | 0.0 | 0.0 | 0.00 | 0.20 | 0.00 | 99 | 1014.7 |
| 20260507070903 | 56 | 149 | 0.0 | 1.0 | 0.00 | 0.20 | 0.00 | 99 | 1014.8 |
| 20260507070005 | 56 | 128 | 0.0 | 2.0 | 0.00 | 0.20 | 0.00 | 99 | 1014.8 |
| 20260507065403 | 56 | 134 | 0.0 | 1.0 | 0.00 | 0.20 | 0.00 | 99 | 1015.0 |
| 20260507064503 | 56 | 67 | 0.0 | 1.0 | 0.00 | 0.20 | 0.00 | 99 | 1015.5 |
| 20260507063603 | 56 | 0 | 0.0 | 0.0 | 0.00 | 0.20 | 0.00 | 99 | 1016.0 |
| 20260507062703 | 56 | 50 | 0.0 | 2.0 | 0.00 | 0.20 | 0.00 | 99 | 1015.4 |
| 20260507061803 | 56 | 66 | 0.0 | 2.0 | 0.00 | 0.20 | 0.00 | 99 | 1015.4 |
| 20260507060903 | 56 | 97 | 1.0 | 3.0 | 0.00 | 0.20 | 0.00 | 99 | 1015.7 |
| 20260507060003 | 56 | 137 | 0.0 | 3.0 | 0.00 | 0.20 | 0.00 | 99 | 1016.1 |
| 20260507055403 | 56 | 140 | 0.0 | 3.0 | 0.00 | 0.20 | 0.00 | 99 | 1016.1 |
| 20260507054503 | 56 | 0 | 0.0 | 0.0 | 0.00 | 0.20 | 0.00 | 99 | 1016.1 |
| 20260507053603 | 56 | 0 | 0.0 | 0.0 | 0.00 | 0.20 | 0.00 | 99 | 1016.2 |
| 20260507052703 | 56 | 85 | 0.0 | 1.0 | 0.00 | 0.20 | 0.00 | 99 | 1016.9 |
| 20260507051803 | 56 | 85 | 0.0 | 1.0 | 0.00 | 0.20 | 0.00 | 99 | 1016.8 |
| 20260507050903 | 56 | 85 | 0.0 | 1.0 | 0.00 | 0.20 | 0.00 | 99 | 1016.8 |
| 20260507050003 | 56 | 77 | 0.0 | 1.0 | 0.00 | 0.20 | 0.00 | 99 | 1016.4 |
| 20260507045424 | 56 | 77 | 0.0 | 1.0 | 0.00 | 0.20 | 0.00 | 99 | 1016.8 |
| 20260507044503 | 56 | 0 | 0.0 | 0.0 | 0.00 | 0.20 | 0.00 | 99 | 1017.1 |
| 20260507043603 | 57 | 45 | 0.0 | 1.0 | 0.00 | 0.20 | 0.00 | 99 | 1017.2 |
| 20260507042703 | 57 | 0 | 0.0 | 0.0 | 0.00 | 0.20 | 0.00 | 99 | 1017.2 |
| 20260507041803 | 57 | 85 | 0.0 | 1.0 | 0.00 | 0.20 | 0.00 | 99 | 1017.4 |
| 20260507040903 | 57 | 70 | 0.0 | 1.0 | 0.00 | 0.20 | 0.00 | 99 | 1017.7 |
| 20260507040025 | 57 | 116 | 0.0 | 2.0 | 0.00 | 0.20 | 0.00 | 99 | 1017.3 |
| 20260507035403 | 57 | 55 | 0.0 | 1.0 | 0.00 | 0.20 | 0.20 | 99 | 1017.4 |
| 20260507034503 | 57 | 52 | 0.0 | 1.0 | 0.00 | 0.20 | 0.20 | 99 | 1017.1 |
| 20260507033603 | 57 | 103 | 0.0 | 1.0 | 0.00 | 0.20 | 0.20 | 99 | 1016.8 |
| 20260507032703 | 57 | 120 | 0.0 | 2.0 | 0.00 | 0.20 | 0.20 | 99 | 1017.2 |
| 20260507031803 | 57 | 127 | 0.0 | 2.0 | 0.01 | 0.20 | 0.20 | 99 | 1017.1 |
| 20260507030924 | 57 | 129 | 0.0 | 1.0 | 0.02 | 0.20 | 0.20 | 98 | 1016.5 |
| 20260507030003 | 57 | 0 | 0.0 | 0.0 | 0.02 | 0.20 | 0.20 | 98 | 1016.4 |
| 20260507025403 | 57 | 0 | 0.0 | 0.0 | 0.02 | 0.20 | 0.20 | 98 | 1016.3 |
| 20260507024503 | 57 | 0 | 0.0 | 0.0 | 0.04 | 0.20 | 0.20 | 98 | 1016.3 |
| 20260507023603 | 57 | 0 | 0.0 | 0.0 | 0.06 | 0.20 | 0.20 | 98 | 1016.5 |
| 20260507022703 | 57 | 99 | 0.0 | 3.0 | 0.07 | 0.20 | 0.20 | 98 | 1016.5 |
| 20260507021803 | 57 | 39 | 1.0 | 2.0 | 0.07 | 0.19 | 0.19 | 98 | 1016.3 |
| 20260507020903 | 57 | 359 | 0.0 | 1.0 | 0.06 | 0.19 | 0.19 | 97 | 1018.0 |
| 20260507020003 | 57 | 39 | 0.0 | 1.0 | 0.06 | 0.19 | 0.19 | 97 | 1017.5 |
| 20260507015403 | 57 | 22 | 0.0 | 1.0 | 0.06 | 0.18 | 0.18 | 97 | 1017.7 |
| 20260507014503 | 58 | 9 | 0.0 | 2.0 | 0.05 | 0.17 | 0.17 | 97 | 1018.0 |
| 20260507013603 | 58 | 69 | 0.0 | 1.0 | 0.02 | 0.14 | 0.14 | 95 | 1018.0 |
| 20260507012703 | 58 | 78 | 0.0 | 1.0 | 0.02 | 0.13 | 0.13 | 95 | 1017.4 |
| 20260507011803 | 58 | 50 | 0.0 | 1.0 | 0.01 | 0.13 | 0.13 | 96 | 1017.5 |
| 20260507010903 | 58 | 144 | 0.0 | 1.0 | 0.01 | 0.12 | 0.12 | 96 | 1017.3 |
| 20260507010003 | 58 | 71 | 0.0 | 1.0 | 0.01 | 0.12 | 0.12 | 96 | 1017.1 |
| 20260507005403 | 59 | 39 | 0.0 | 2.0 | 0.01 | 0.12 | 0.12 | 96 | 1016.9 |
| 20260507004503 | 59 | 59 | 1.0 | 3.0 | 0.02 | 0.12 | 0.12 | 96 | 1017.1 |
| 20260507003603 | 59 | 125 | 1.0 | 8.0 | 0.05 | 0.12 | 0.12 | 96 | 1017.0 |
| 20260507002703 | 59 | 129 | 1.0 | 7.0 | 0.05 | 0.11 | 0.11 | 96 | 1017.3 |
| 20260507001803 | 60 | 44 | 1.0 | 7.0 | 0.05 | 0.11 | 0.11 | 96 | 1017.1 |
| 20260507000903 | 60 | 108 | 0.0 | 2.0 | 0.06 | 0.11 | 0.11 | 94 | 1017.2 |
| 20260507000003 | 60 | 163 | 0.0 | 1.0 | 0.06 | 0.11 | 0.11 | 93 | 1016.5 |
| 20260506235403 | 60 | 163 | 0.0 | 1.0 | 0.06 | 0.11 | 0.11 | 94 | 1016.4 |
| 20260506234524 | 60 | 112 | 0.0 | 3.0 | 0.06 | 0.10 | 0.10 | 95 | 1017.0 |
| 20260506233603 | 61 | 133 | 0.0 | 2.0 | 0.03 | 0.07 | 0.07 | 93 | 1017.0 |
| 20260506232703 | 61 | 126 | 0.0 | 2.0 | 0.03 | 0.07 | 0.07 | 93 | 1017.0 |
| 20260506231824 | 62 | 107 | 0.0 | 2.0 | 0.03 | 0.06 | 0.06 | 91 | 1016.5 |
| 20260506230903 | 62 | 135 | 0.0 | 2.0 | 0.03 | 0.06 | 0.06 | 92 | 1016.4 |
| 20260506230024 | 62 | 116 | 0.0 | 4.0 | 0.03 | 0.06 | 0.06 | 93 | 1016.5 |
| 20260506225403 | 62 | 127 | 0.0 | 4.0 | 0.02 | 0.05 | 0.05 | 91 | 1016.5 |
| 20260506224503 | 63 | 106 | 0.0 | 1.0 | 0.01 | 0.04 | 0.04 | 89 | 1016.4 |
| 20260506223603 | 63 | 129 | 0.0 | 1.0 | 0.01 | 0.04 | 0.04 | 89 | 1016.7 |
| 20260506222703 | 63 | 99 | 0.0 | 2.0 | 0.01 | 0.04 | 0.04 | 89 | 1016.4 |
| 20260506221803 | 63 | 130 | 0.0 | 2.0 | 0.01 | 0.04 | 0.04 | 90 | 1016.4 |
| 20260506220903 | 63 | 286 | 0.0 | 3.0 | 0.01 | 0.03 | 0.03 | 89 | 1017.0 |
| 20260506220003 | 63 | 17 | 0.0 | 1.0 | 0.00 | 0.02 | 0.02 | 88 | 1017.1 |
| 20260506215403 | 63 | 232 | 0.0 | 1.0 | 0.00 | 0.02 | 0.02 | 88 | 1017.1 |
| 20260506214503 | 63 | 58 | 0.0 | 1.0 | 0.00 | 0.02 | 0.02 | 88 | 1017.4 |
| 20260506213603 | 63 | 98 | 0.0 | 3.0 | 0.00 | 0.02 | 0.02 | 88 | 1016.9 |
| 20260506212703 | 63 | 147 | 1.0 | 4.0 | 0.00 | 0.02 | 0.02 | 87 | 1017.1 |
| 20260506211803 | 64 | 150 | 1.0 | 4.0 | 0.00 | 0.02 | 0.02 | 86 | 1017.1 |
| 20260506210903 | 64 | 189 | 1.0 | 6.0 | 0.00 | 0.02 | 0.02 | 86 | 1016.9 |
| 20260506210003 | 65 | 119 | 1.0 | 6.0 | 0.00 | 0.02 | 0.02 | 84 | 1016.7 |
| 20260506205403 | 66 | 135 | 1.0 | 8.0 | 0.00 | 0.02 | 0.02 | 82 | 1017.0 |
| 20260506204503 | 66 | 160 | 2.0 | 7.0 | 0.00 | 0.02 | 0.02 | 81 | 1016.7 |
| 20260506203603 | 68 | 212 | 1.0 | 4.0 | 0.00 | 0.02 | 0.02 | 79 | 1016.5 |
| 20260506202703 | 68 | 199 | 1.0 | 4.0 | 0.00 | 0.02 | 0.02 | 79 | 1016.1 |
| 20260506201803 | 68 | 166 | 1.0 | 6.0 | 0.00 | 0.02 | 0.02 | 79 | 1016.3 |
| 20260506200924 | 69 | 125 | 2.0 | 6.0 | 0.00 | 0.02 | 0.02 | 77 | 1016.4 |
| 20260506200003 | 69 | 128 | 1.0 | 6.0 | 0.00 | 0.02 | 0.02 | 76 | 1016.7 |
| 20260506195403 | 70 | 237 | 1.0 | 4.0 | 0.00 | 0.02 | 0.02 | 75 | 1017.1 |
| 20260506194503 | 70 | 145 | 2.0 | 6.0 | 0.00 | 0.02 | 0.02 | 75 | 1016.8 |
| 20260506193603 | 70 | 226 | 2.0 | 7.0 | 0.00 | 0.02 | 0.02 | 72 | 1017.1 |
| 20260506192703 | 70 | 193 | 2.0 | 7.0 | 0.00 | 0.02 | 0.02 | 72 | 1017.4 |
| 20260506191803 | 70 | 145 | 2.0 | 8.0 | 0.00 | 0.02 | 0.02 | 72 | 1017.0 |
| 20260506190903 | 70 | 138 | 1.0 | 7.0 | 0.00 | 0.02 | 0.02 | 73 | 1016.9 |
| 20260506190003 | 70 | 111 | 1.0 | 7.0 | 0.00 | 0.02 | 0.02 | 72 | 1016.5 |
| 20260506185403 | 69 | 168 | 1.0 | 7.0 | 0.00 | 0.02 | 0.02 | 73 | 1016.5 |
| 20260506184503 | 70 | 45 | 1.0 | 6.0 | 0.00 | 0.02 | 0.02 | 74 | 1016.9 |
| 20260506183603 | 70 | 168 | 1.0 | 7.0 | 0.00 | 0.02 | 0.02 | 73 | 1017.0 |
| 20260506182703 | 70 | 253 | 1.0 | 3.0 | 0.00 | 0.02 | 0.02 | 74 | 1016.5 |
| 20260506181803 | 69 | 145 | 2.0 | 7.0 | 0.00 | 0.02 | 0.02 | 77 | 1016.8 |
| 20260506180924 | 68 | 140 | 1.0 | 3.0 | 0.00 | 0.02 | 0.02 | 79 | 1016.4 |
| 20260506180004 | 67 | 141 | 1.0 | 6.0 | 0.00 | 0.02 | 0.02 | 77 | 1016.4 |
| 20260506175403 | 67 | 138 | 1.0 | 3.0 | 0.00 | 0.02 | 0.02 | 77 | 1016.8 |
| 20260506174503 | 66 | 175 | 1.0 | 3.0 | 0.00 | 0.02 | 0.02 | 79 | 1016.7 |
| 20260506173603 | 66 | 87 | 1.0 | 4.0 | 0.00 | 0.02 | 0.02 | 79 | 1016.7 |
| 20260506172703 | 65 | 178 | 1.0 | 6.0 | 0.00 | 0.02 | 0.02 | 83 | 1017.2 |
| 20260506171803 | 64 | 144 | 2.0 | 6.0 | 0.01 | 0.02 | 0.02 | 85 | 1017.1 |
| 20260506170924 | 63 | 156 | 1.0 | 4.0 | 0.02 | 0.02 | 0.02 | 86 | 1017.1 |
| 20260506170003 | 61 | 99 | 1.0 | 3.0 | 0.02 | 0.02 | 0.02 | 89 | 1018.2 |
| 20260506165403 | 61 | 138 | 1.0 | 3.0 | 0.02 | 0.02 | 0.02 | 89 | 1018.3 |
| 20260506164503 | 60 | 139 | 1.0 | 8.0 | 0.02 | 0.02 | 0.02 | 89 | 1018.4 |
| 20260506163603 | 60 | 28 | 2.0 | 10.0 | 0.02 | 0.02 | 0.02 | 90 | 1018.0 |
| 20260506162703 | 60 | 14 | 1.0 | 7.0 | 0.02 | 0.02 | 0.02 | 90 | 1018.2 |
| 20260506161803 | 60 | 68 | 1.0 | 7.0 | 0.01 | 0.01 | 0.01 | 89 | 1018.2 |
| 20260506160903 | 61 | 14 | 1.0 | 3.0 | 0.00 | 0.00 | 0.00 | 87 | 1018.5 |
| 20260506160003 | 62 | 98 | 2.0 | 9.0 | 0.00 | 0.00 | 0.00 | 83 | 1018.5 |
| 20260506155424 | 62 | 124 | 2.0 | 10.0 | 0.00 | 0.00 | 0.00 | 81 | 1018.8 |
| 20260506154503 | 61 | 198 | 2.0 | 11.0 | 0.00 | 0.00 | 0.00 | 82 | 1018.4 |
| 20260506153603 | 61 | 107 | 2.0 | 6.0 | 0.00 | 0.00 | 0.00 | 81 | 1018.5 |
| 20260506152724 | 61 | 213 | 2.0 | 7.0 | 0.00 | 0.00 | 0.00 | 82 | 1018.1 |
| 20260506151803 | 61 | 152 | 2.0 | 8.0 | 0.00 | 0.00 | 0.00 | 80 | 1017.8 |
| 20260506150903 | 60 | 169 | 1.0 | 2.0 | 0.00 | 0.00 | 0.00 | 82 | 1017.8 |
| 20260506150003 | 60 | 157 | 1.0 | 6.0 | 0.00 | 0.00 | 0.00 | 81 | 1017.2 |
| 20260506145403 | 60 | 59 | 1.0 | 3.0 | 0.00 | 0.00 | 0.00 | 81 | 1017.1 |
| 20260506144503 | 60 | 18 | 0.0 | 2.0 | 0.00 | 0.00 | 0.00 | 82 | 1017.2 |
| 20260506143603 | 59 | 110 | 0.0 | 2.0 | 0.00 | 0.00 | 0.00 | 81 | 1017.0 |
| 20260506142703 | 59 | 196 | 1.0 | 4.0 | 0.00 | 0.00 | 0.00 | 81 | 1017.1 |
| 20260506141803 | 60 | 257 | 1.0 | 4.0 | 0.00 | 0.00 | 0.00 | 80 | 1017.1 |
| 20260506140903 | 60 | 164 | 1.0 | 4.0 | 0.00 | 0.00 | 0.00 | 78 | 1017.4 |